Minna Airport

Airport
ICAO code: 
DNMN
IATA Code: 
MXJ
Summary
ICAO Region: 
AFI
Territory: 
Location: 
Maikonkole, Niger State
Serving: 
Minna
Elevation: 
834 ft
Coordinates: 
Aerial View: 
9° 39' 5.004" N, 6° 27' 39.996" E
Metar
Observation
DNMN 191100Z 05004KT 8000 NSC 29/03 Q1016
Station
Minna Airport
Date/Time
2022-01-19 11:00:00
Wind direction
50°
Wind speed
04 kts
Lowest cloud amount
nil significant cloud
Temperature
29°C
Dew point
3°C
Humidity
18%
QNH
1016 hPa
Weather condition
n/a

Minna Airport is an airport 6.2 nm northwest of Minna, the capital of Niger State in Nigeria.

Climatology

Tropical savanna climate (Köppen climate classification Aw)

Runways

Designator Length Width Surface Rops
5/23 3399 44 ASP No/No
Airport map: 
Aerial View: 

SKYbrary Partners:

Safety knowledge contributed by: